Content
SEND FEEDBACK

Daily
Averages
Monthly
Summary
United States of America

ASATDAS, GUAM


Home > North America > United States > Guam
Elevation: 612 feet     Latitude: 13 35N     Longitude: 144 56E

WEATHER
 
SELECT A DAY
Number of Records: 215,487;   Date Range: 1/1/95 - 12/16/14
 
SHARE

PRINT THIS DATA

[ ← Previous Day ]
WEATHER ALMANAC - DECEMBER 22, 2013
[ Next Day → ]
[ °C ]   °F
Weather ElementAverageHighLow
Temperature80.4 °F86 °F (12:54 pm)75.9 °F (6:54 am)
Dewpoint71.8 °F73 °F (1:54 am)70 °F (9:54 am)
Humidity75.3 %88 % (2:54 am)61 % (12:54 pm)
Barometer29.89 in29.93 in (8:54 am)29.84 in (2:54 pm)
Wind Speed13.8 mph19.6 mph (10:54 am)
Wind Gust27.6 mph (2:54 pm)
Weather ElementAverage
Visibility10 mi
Wind DirectionENE (52.6 °)

Weather ElementTotal
Precipitation---
Cooling Degree Days16 (Base 65)
Growing Degree Days31 (Base 50)
Averaged from 23 records on December 22, 2013
WEATHER CONDITIONS BREAKOUT
WIND DIRECTION BREAKOUT
WEATHER BY HOUR - DECEMBER 22, 2013
[ °C ]   °F
Local TimeTemperatureDewpointHumidityBarometerVisibilityWind DirectionWind SpeedGust SpeedPrecipitationEventsConditions
1:54 AM78.1 °F73.0 °F84 %29.88 in10.0 miENE (60°)12.7 mphOvercast
2:54 AM77.0 °F73.0 °F88 %29.86 in10.0 miENE (60°)13.8 mphClear
3:54 AM77.0 °F73.0 °F88 %29.86 in10.0 miENE (60°)10.4 mphClear
4:54 AM77.0 °F72.0 °F84 %29.87 in10.0 miENE (60°)10.4 mphClear
5:54 AM77.0 °F72.0 °F84 %29.88 in10.0 miENE (60°)10.4 mphClear
6:54 AM75.9 °F72.0 °F87 %29.90 in10.0 miENE (60°)6.9 mphClear
7:54 AM79.0 °F73.0 °F82 %29.91 in10.0 miNE (50°)11.5 mphClear
8:54 AM82.0 °F73.0 °F74 %29.93 in10.0 miNE (40°)13.8 mphPartly Cloudy
9:54 AM82.9 °F70.0 °F65 %29.93 in10.0 miENE (60°)18.4 mph25.3 mphPartly Cloudy
10:54 AM84.0 °F71.1 °F65 %29.92 in10.0 miNE (50°)19.6 mphScattered Clouds
11:54 AM84.0 °F72.0 °F67 %29.90 in10.0 miNE (50°)17.3 mph25.3 mphMostly Cloudy
12:54 PM86.0 °F71.1 °F61 %29.88 in10.0 miNE (50°)16.1 mphMostly Cloudy
1:54 PM84.9 °F72.0 °F65 %29.85 in10.0 miNE (50°)19.6 mph26.5 mphScattered Clouds
2:54 PM84.9 °F70.0 °F61 %29.84 in10.0 miNE (50°)18.4 mph27.6 mphScattered Clouds
3:54 PM84.9 °F72.0 °F65 %29.85 in10.0 miNE (50°)15.0 mph24.2 mphScattered Clouds
4:54 PM82.9 °F72.0 °F69 %29.86 in10.0 miENE (60°)17.3 mph23.0 mphScattered Clouds
5:54 PM80.1 °F71.1 °F74 %29.88 in10.0 miNE (40°)15.0 mphClear
6:54 PM79.0 °F71.1 °F77 %29.89 in10.0 miNE (40°)12.7 mphPartly Cloudy
7:54 PM79.0 °F72.0 °F79 %29.91 in10.0 miNE (50°)10.4 mphPartly Cloudy
8:54 PM79.0 °F71.1 °F77 %29.93 in10.0 miNE (50°)11.5 mphMostly Cloudy
9:54 PM79.0 °F71.1 °F77 %29.93 in10.0 miNE (50°)9.2 mphPartly Cloudy
10:54 PM78.1 °F71.1 °F79 %29.93 in10.0 miENE (60°)12.7 mphClear
11:54 PM78.1 °F72.0 °F81 %29.92 in10.0 miNE (50°)13.8 mphClear
Hourly data recorded from PGUM, located miles away from Asatdas, Guam







STORIES FROM OUR PARTNERS